Location: Solstice Park, West Seattle
(47.5363°N, 122.3905°W)
Time: 07:51:20
(UTC-07:00)

ISS - Pass Details

Date: 14 May 2021
Orbit: 417 x 422 km, 51.6° (Epoch: 18 June)

Event Time Altitude Azimuth Distance (km) Brightness Sun altitude
Rises 04:44:49 0° 291° (WNW) 2,376 -0.2 -7.6°
Reaches altitude 10° 04:47:05 10° 280° (W) 1,508 -1.3 -7.3°
Maximum altitude 04:50:04 29° 218° (SW) 797 -2.9 -6.9°
Drops below altitude 10° 04:53:03 10° 155° (SSE) 1,502 -1.1 -6.5°
Sets 04:55:18 0° 144° (SE) 2,363 0.1 -6.2°
